"Pseudo-MPEC" for C2TA3N2

Created 2020 May 27 21:07:03 UT using Find_Orb

Click here for an explanation of pseudo-MPECs

 
 Astrometry: 
     C2TA3N2  C2020 05 18.26968 13 34 05.27 +28 26 53.2    ~5I7M 22.4 GVNEOCPG96
     C2TA3N2  C2020 05 18.27481 13 34 04.94 +28 26 42.1    ~5I7M 22.1 GVNEOCPG96
     C2TA3N2  C2020 05 18.27994 13 34 04.58 +28 26 30.8    ~5I7M 21.9 GVNEOCPG96
     C2TA3N2  C2020 05 18.28507 13 34 04.17 +28 26 20.9    ~5I7M 22.7 GVNEOCPG96
     C2TA3N2  C2020 05 18.36580 13 33 59.00 +28 23 26.9    ~5I9b 21.8 GVNEOCPV06
     C2TA3N2  C2020 05 18.37213 13 33 58.57 +28 23 13.2    ~5I9b 22.1 GVNEOCPV06
     C2TA3N2  C2020 05 18.37847 13 33 58.19 +28 22 59.8    ~5I9b 21.9 GVNEOCPV06
     C2TA3N2  C2020 05 18.38481 13 33 57.81 +28 22 46.1    ~5I9b 22.6 GVNEOCPV06

Station data:
(G96) Mt. Lemmon Survey  (N32.442754 W110.788720)  US/Arizona.  Observers T.
   A. Pruyne, B. M. Africano, E. J. Christensen, G. A. Farneth, D. C. Fuls,
   A. R. Gibbs, A. D. Grauer, H. Gröller, J. A. Johnson, R. A. Kowalski, S.
   M. Larson, G. J. Leonard, D. Rankin, R. L. Seaman, F. C. Shelly. 1.5-m
   reflector + 10K CCD.
(V06) Catalina Sky Survey-Kuiper  (N32.416847 W110.732550)  US/Arizona.
   Observers T. A. Pruyne, B. M. Africano, E. J. Christensen, G. A. Farneth,
   D. C. Fuls, A. R. Gibbs, A. D. Grauer, H. Gröller, J. A. Johnson, R. A.
   Kowalski, S. M. Larson, G. J. Leonard, D. Rankin, R. L. Seaman, F. C.
   Shelly. 1.55-m reflector + CCD.

Orbital elements:  C2TA3N2
   Perihelion 2020 Jul 6.300584 +/- 84.7 TT =  7:12:50 (JD 2459036.800584)
Epoch 2020 May 18.0 TT = JDT 2458987.5   Earth MOID: 0.2592   AutoNEOCP
M 347.04792762 +/- 70               (J2000 ecliptic)
n   0.26271641 +/- 0.288            Peri.  182.89709 +/- 90
a   2.41441126 +/- 1.76             Node    77.47926 +/- 56
e   0.4723109 +/- 0.202             Incl.   22.17122 +/- 11
P   3.75                   H 21.7   G  0.15   U 11.9  SR
q 1.27405845 +/- 0.482    Q 3.55476406 +/- 1.64
From 8 observations 2020 May 18 (2.8 hr); mean residual 0".33
Residuals in arcseconds: 
200518 G96  .26+  .06+    200518 G96  .83-  .58+    200518 V06  .00   .12+    
200518 G96  .39+  .11-    200518 V06  .09+  .13-    200518 V06  .25+  .11+    
200518 G96  .11+  .47-    200518 V06  .28-  .17-    

Ephemerides (geocentric):
Date (UTC) HH   RA              Dec         delta   r     elong  mag " sig PA
---- -- -- --  -------------   -----------  ------ ------ -----  --- ---- ---
2020 05 27 21  13 26 44.543   +21 58 56.49  .50738 1.3382 119.5 22.5 3788 108
2020 05 27 22  13 26 43.252   +21 57 03.49  .50732 1.3380 119.5 22.5 3817 108
2020 05 27 23  13 26 41.967   +21 55 10.38  .50726 1.3379 119.5 22.5 3847 108
2020 05 28 00  13 26 40.687   +21 53 17.18  .50720 1.3378 119.4 22.5 3877 108
2020 05 28 01  13 26 39.414   +21 51 23.89  .50714 1.3377 119.4 22.5 3907 108
2020 05 28 02  13 26 38.145   +21 49 30.50  .50708 1.3375 119.4 22.5 3937 107
2020 05 28 03  13 26 36.883   +21 47 37.01  .50702 1.3374 119.4 22.5 3967 107
2020 05 28 04  13 26 35.626   +21 45 43.43  .50696 1.3373 119.4 22.5 3997 107
2020 05 28 05  13 26 34.374   +21 43 49.75  .50691 1.3371 119.4 22.5 4028 107
2020 05 28 06  13 26 33.129   +21 41 55.98  .50685 1.3370 119.4 22.5 4058 107
2020 05 28 07  13 26 31.889   +21 40 02.12  .50679 1.3369 119.3 22.5 4089 107
2020 05 28 08  13 26 30.654   +21 38 08.16  .50673 1.3368 119.3 22.5 4119 107
2020 05 28 09  13 26 29.425   +21 36 14.10  .50667 1.3366 119.3 22.5 4150 107
2020 05 28 10  13 26 28.202   +21 34 19.96  .50662 1.3365 119.3 22.5 4181 107
2020 05 28 11  13 26 26.985   +21 32 25.71  .50656 1.3364 119.3 22.5 4213 107
2020 05 28 12  13 26 25.773   +21 30 31.38  .50650 1.3362 119.3 22.5 4244 107
2020 05 28 13  13 26 24.566   +21 28 36.95  .50645 1.3361 119.2 22.5 4275 107
2020 05 28 14  13 26 23.366   +21 26 42.42  .50639 1.3360 119.2 22.5 4307 107
2020 05 28 15  13 26 22.171   +21 24 47.81  .50633 1.3359 119.2 22.5 4338 107
2020 05 28 16  13 26 20.981   +21 22 53.09  .50628 1.3357 119.2 22.5 4370 107
2020 05 28 17  13 26 19.798   +21 20 58.29  .50622 1.3356 119.2 22.5 4402 107
2020 05 28 18  13 26 18.620   +21 19 03.39  .50616 1.3355 119.2 22.5 4434 107
2020 05 28 19  13 26 17.447   +21 17 08.40  .50611 1.3353 119.1 22.5 4466 106
2020 05 28 20  13 26 16.280   +21 15 13.32  .50605 1.3352 119.1 22.5 4499 106
2020 05 28 21  13 26 15.119   +21 13 18.14  .50600 1.3351 119.1 22.5 4531 106
2020 05 28 22  13 26 13.964   +21 11 22.87  .50594 1.3350 119.1 22.5 4564 106
2020 05 28 23  13 26 12.814   +21 09 27.51  .50589 1.3348 119.1 22.5 4596 106
2020 05 29 00  13 26 11.670   +21 07 32.05  .50583 1.3347 119.1 22.5 4629 106
2020 05 29 01  13 26 10.531   +21 05 36.51  .50578 1.3346 119.1 22.5 4662 106
2020 05 29 02  13 26 09.398   +21 03 40.87  .50572 1.3345 119.0 22.5 4695 106
2020 05 29 03  13 26 08.271   +21 01 45.14  .50567 1.3343 119.0 22.5 4728 106
2020 05 29 04  13 26 07.149   +20 59 49.31  .50561 1.3342 119.0 22.5 4762 106
2020 05 29 05  13 26 06.034   +20 57 53.40  .50556 1.3341 119.0 22.5 4795 106
2020 05 29 06  13 26 04.923   +20 55 57.39  .50551 1.3339 119.0 22.5 4829 106
2020 05 29 07  13 26 03.819   +20 54 01.29  .50545 1.3338 119.0 22.5 4862 106
2020 05 29 08  13 26 02.720   +20 52 05.10  .50540 1.3337 118.9 22.5 4896 106
2020 05 29 09  13 26 01.626   +20 50 08.82  .50535 1.3336 118.9 22.5 4930 106
2020 05 29 10  13 26 00.539   +20 48 12.45  .50529 1.3334 118.9 22.5 4964 106
2020 05 29 11  13 25 59.457   +20 46 15.98  .50524 1.3333 118.9 22.5 4999 106
2020 05 29 12  13 25 58.380   +20 44 19.43  .50519 1.3332 118.9 22.5 5033 106
2020 05 29 13  13 25 57.310   +20 42 22.78  .50513 1.3331 118.9 22.5 5068 106
2020 05 29 14  13 25 56.245   +20 40 26.04  .50508 1.3329 118.8 22.5 5102 105
2020 05 29 15  13 25 55.185   +20 38 29.22  .50503 1.3328 118.8 22.5 5137 105
2020 05 29 16  13 25 54.132   +20 36 32.30  .50498 1.3327 118.8 22.5 5172 105
2020 05 29 17  13 25 53.084   +20 34 35.29  .50493 1.3326 118.8 22.5 5207 105
2020 05 29 18  13 25 52.041   +20 32 38.19  .50487 1.3324 118.8 22.5 5242 105
2020 05 29 19  13 25 51.005   +20 30 41.01  .50482 1.3323 118.8 22.5 5278 105
2020 05 29 20  13 25 49.974   +20 28 43.73  .50477 1.3322 118.8 22.5 5313 105